Showing default

COSMOS 88, 1586

Orbit data source: Space-Track

COSMOS 88, 1586 is a payload satellite owned by OKB-10 (CIS) in LEO that was launched on Sat, 18 Sep 1965 UTC via a KOSMOS 65S3 launch vehicle from the Tyuratam Missile And Space Complex (TTMTR). Payload-class satellites include a variety of spacecraft equipped with specific instruments for various scientific and technological missions. These include communications satellites like Starlink; space stations such as the ISS; scientific satellites like the Hubble; Earth observation satellites from companies like Planet Labs, Umbra, and HawkEye 360; GPS; miniature CubeSats for education and research; and military/defense satellites.

Loading next visibility...
Identifier
1586, 1965-073C
Orbit
LEO
Country
Flag of CISCIS
Related business
Manufacturer
OKB-10
Mission
Spacecraft
Bus & Motor
STRELA-1 11F610, Unknown motor
Mass
50 kg wet, 50 kg dry
Launch date (UTC)
1965-09-18 (61 years ago)
Launch vehicle
KOSMOS 65S3
Launch site
Tyuratam Missile And Space Complex (TTMTR)
Object type
Payload
Rocket body
Debris
Shape & HBR
Unknown
Radar Cross Section
Medium (>0.1 m² and <1 m²)

Expand to show TLE details & history
Last TLE update: 17 hours ago

TLE from 17 hours ago
0 COSMOS 88
1  1586U 65073C   26197.67236912 -.00000064  00000-0  19868-3 0  9998
2  1586  56.0623 304.0063 0187028 206.7008 271.9969 12.43346230762162
Epoch: 2026-07-16T16:08Z
TLE epoch observation values (Epoch: 2026-07-16T16:08:12.691Z)
Latitude
48.03654°
Longitude
-100.68685°
Altitude
1,495.826 km
Speed
7.122 km/s
True Right ascension
05h 03m 30s
True Declination
47° 52' 54"
Sunlit
Object was in daylight at epoch
Visualization orbit readout
Latitude
Unknown
Longitude
Unknown
Altitude
Unknown
Speed
Unknown
Apparent Right ascension
Unknown
Apparent Declination
Unknown
Sunlit
N/A
Visualization observer readout
Local Sidereal Time
22:00:17
Azimuth
Unknown
Elevation
Unknown
Doppler factor
Unknown
Orbital elements
Apogee altitude
1,639.472 km
Perigee altitude
1,345.074 km
Semi-major axis
7,870.41 km
Eccentricity
0.0187
Inclination
56.0623°
RAAN
304.0063°
Arg. of periapsis
206.7008°
True anomaly
269.85377°
Mean anomaly
271.9969°
Eccentric anomaly
270.92545°
Mean motion
3.10847 °/min
Orbital period
115.81 mins
BSTAR
0.00019868
Loading maneuver chart data...
Computing Atmospheric mass density...
Loading historical data...
Loading historical data...
Loading historical data...
Loading historical data...
Loading historical data...
Loading historical data...
Loading historical data...

Documentation

Showing up to 5 results
|